TITAN 3C TRANSTAGE DEB, 1668

Orbit data source: Space-Track

TITAN 3C TRANSTAGE DEB, 1668 is space debris in LEO originally from a launch on Fri, 15 Oct 1965 UTC launched from the Air Force Eastern Test Range (AFETR). Debris objects in space refer to the collection of defunct objects orbiting the Earth. Examples of debris include non-operational satellites, rocket bodies, and fragments generated from explosions, collisions, or faulty payload assembly.

Loading next visibility...
Identifier
1668, 1965-082AF
Orbit
LEO
Last TLE update
13 hours ago
Origin
Manufacturer
Unknown
Mission
Spacecraft
Bus & Motor
Unknown
Mass
370 kg wet, 370 kg dry
Launch date (UTC)
1965-10-15 (60 years ago)
Launch vehicle
Unknown
Launch site
Air Force Eastern Test Range (AFETR)
Object type
Payload
Rocket body
Debris
Shape & HBR
Unknown
Radar Cross Section
2.800 m², Large (>1 m²)

Expand to show TLE details & history

TLE from 13 hours ago
0 TITAN 3C TRANSTAGE DEB
1 01668U 65082AF  25200.88768873  .00001354  00000-0  16484-3 0  9995
2 01668  32.0687  44.4136 0014305 133.5338 226.6502 14.81156049169019
Epoch: 2025-07-19T21:18Z
TLE epoch observation values (Epoch: 2025-07-19T21:18:16.306Z)
Latitude
0.00001°
Longitude
146.92733°
Altitude
631.193 km
Speed
7.541 km/s
True Right ascension
02h 57m 39s
True Declination
0° 00' 00"
Sunlit
Object was in daylight at epoch
Visualization orbit readout
Latitude
7.58969°
Longitude
155.83469°
Altitude
629.26 km
Speed
7.544 km/s
Apparent Right ascension
06h 22m 14s
Apparent Declination
-25° 26' 35"
Sunlit
Object is in daylight
Visualization observer readout
Local Sidereal Time
23:11:53
Azimuth
100.169° ESE
Elevation
-29.01°
Doppler factor
1
Orbital elements
Apogee altitude
639.337 km
Perigee altitude
619.288 km
Semi-major axis
7,007.449 km
Eccentricity
0.00143
Inclination
32.0687°
RAAN
44.4136°
Arg. of periapsis
133.5338°
True anomaly
226.53115°
Mean anomaly
226.6502°
Eccentric anomaly
226.59066°
Mean motion
3.70001 °/min
Orbital period
97.3 mins
BSTAR
0.00016484
Loading maneuver chart data...
Loading SW <> Apogee altitude chart data...
|